Zurück zum Katalog

SL-8 DEB *

AktivLEO
NORAD 3745·DEBRIS·🇷🇺 Russia

Gestartet Mar 15, 1965 von Baikonur Cosmodrome

Loading…

Nächste Überflüge (nächste 24 Stunden)

TLE

AktuellSource: Space-Track

Epoche: Sep 14, 2026, 03:03 UTC

1 03745U 65020ET  26257.12771990 -.00000017  00000-0  48859-3 0  9996
2 03745  56.0163 154.6720 0169921  77.0421  67.4060 12.51041748652117

Verfolge SL-8 DEB * in Echtzeit mit AllMySat

Download on the App Store